QPF
0.01 0.00 0.01 0.01 0.01 0.01 0.01 0.01 0.01 0.02 0.02 0.02 0.03 0.03 0.02 0.02 0.02 0.02 0.03 0.03 0.03 0.02 0.02 0.03 0.04 0.04 0.04 0.05 0.06 0.06 0.06 0.05 0.04 0.04 0.04 0.03 0.03 0.03 0.04 0.03 0.03 0.03 0.03
0.01 0.01 0.01 0.01 0.01 0.01 0.02 0.02 0.02 0.02 0.02 0.03 0.03 0.03 0.03 0.02 0.02 0.03 0.03 0.03 0.03 0.03 0.03 0.03 0.03 0.04 0.03 0.03 0.03 0.04 0.04 0.04 0.04 0.04 0.04 0.04 0.03 0.02 0.02 0.02 0.03 0.03 0.03
0.00 0.01 0.01 0.01 0.01 0.01 0.02 0.03 0.03 0.03 0.03 0.04 0.04 0.03 0.04 0.04 0.03 0.03 0.03 0.04 0.04 0.03 0.03 0.04 0.04 0.03 0.04 0.03 0.03 0.03 0.03 0.04 0.04 0.04 0.04 0.04 0.04 0.02 0.02 0.02 0.03 0.04 0.03
0.00 0.01 0.01 0.01 0.01 0.02 0.03 0.04 0.04 0.04 0.03 0.04 0.05 0.05 0.04 0.05 0.04 0.03 0.03 0.04 0.04 0.04 0.04 0.04 0.04 0.04 0.03 0.03 0.02 0.02 0.03 0.04 0.04 0.05 0.05 0.04 0.03 0.03 0.02 0.02 0.03 0.03 0.03
0.01 0.01 0.01 0.02 0.02 0.02 0.03 0.03 0.04 0.04 0.03 0.04 0.05 0.06 0.05 0.04 0.04 0.04 0.05 0.05 0.04 0.04 0.04 0.04 0.04 0.04 0.04 0.03 0.03 0.03 0.03 0.03 0.03 0.04 0.04 0.03 0.03 0.02 0.02 0.03 0.03 0.03 0.04
0.01 0.01 0.01 0.02 0.02 0.02 0.03 0.03 0.04 0.05 0.05 0.04 0.06 0.07 0.07 0.06 0.05 0.06 0.07 0.06 0.05 0.05 0.04 0.04 0.04 0.05 0.05 0.04 0.03 0.03 0.03 0.04 0.04 0.04 0.03 0.03 0.02 0.02 0.01 0.02 0.02 0.03 0.04
0.01 0.01 0.02 0.02 0.02 0.03 0.03 0.03 0.04 0.05 0.06 0.05 0.06 0.07 0.08 0.08 0.08 0.07 0.08 0.07 0.06 0.06 0.05 0.05 0.05 0.06 0.06 0.04 0.04 0.04 0.04 0.04 0.04 0.04 0.03 0.02 0.02 0.01 0.01 0.02 0.02 0.02 0.02
0.01 0.01 0.01 0.02 0.03 0.03 0.04 0.04 0.04 0.04 0.05 0.06 0.06 0.06 0.08 0.08 0.08 0.08 0.07 0.06 0.06 0.05 0.05 0.06 0.06 0.05 0.04 0.04 0.04 0.03 0.03 0.04 0.04 0.04 0.03 0.02 0.02 0.02 0.01 0.02 0.03 0.03 0.04
0.01 0.02 0.02 0.02 0.02 0.03 0.03 0.04 0.05 0.04 0.04 0.05 0.06 0.06 0.08 0.09 0.08 0.07 0.06 0.05 0.06 0.06 0.06 0.06 0.06 0.05 0.05 0.04 0.04 0.03 0.03 0.04 0.04 0.04 0.04 0.04 0.03 0.03 0.03 0.03 0.04 0.05 0.05
0.02 0.02 0.02 0.02 0.02 0.02 0.03 0.04 0.04 0.05 0.05 0.04 0.05 0.06 0.08 0.09 0.08 0.06 0.05 0.05 0.06 0.07 0.07 0.07 0.06 0.05 0.05 0.05 0.04 0.04 0.04 0.04 0.04 0.04 0.05 0.05 0.04 0.03 0.03 0.03 0.03 0.03 0.04
0.02 0.02 0.02 0.03 0.03 0.02 0.02 0.03 0.03 0.04 0.05 0.05 0.05 0.05 0.07 0.08 0.09 0.07 0.05 0.05 0.06 0.07 0.07 0.08 0.07 0.06 0.05 0.06 0.05 0.05 0.05 0.04 0.04 0.04 0.05 0.05 0.06 0.05 0.04 0.03 0.03 0.03 0.02
0.02 0.02 0.02 0.02 0.02 0.03 0.03 0.03 0.03 0.04 0.04 0.05 0.04 0.05 0.05 0.06 0.07 0.07 0.07 0.07 0.06 0.06 0.07 0.07 0.07 0.07 0.06 0.07 0.06 0.06 0.06 0.06 0.06 0.06 0.06 0.06 0.06 0.06 0.05 0.04 0.03 0.03 0.02
0.03 0.02 0.02 0.02 0.02 0.02 0.02 0.03 0.03 0.03 0.03 0.04 0.04 0.04 0.04 0.04 0.05 0.06 0.05 0.06 0.08 0.07 0.06 0.07 0.07 0.07 0.08 0.08 0.09 0.07 0.06 0.06 0.07 0.07 0.07 0.06 0.05 0.05 0.05 0.05 0.04 0.04 0.03
0.02 0.02 0.02 0.02 0.02 0.02 0.02 0.03 0.03 0.04 0.04 0.04 0.04 0.04 0.04 0.04 0.05 0.04 0.04 0.05 0.06 0.06 0.06 0.06 0.06 0.07 0.08 0.08 0.09 0.08 0.07 0.07 0.07 0.07 0.07 0.07 0.06 0.05 0.05 0.05 0.05 0.05 0.05
0.01 0.01 0.02 0.01 0.01 0.02 0.01 0.02 0.03 0.04 0.05 0.05 0.06 0.05 0.05 0.06 0.06 0.06 0.05 0.04 0.05 0.05 0.06 0.06 0.05 0.05 0.06 0.07 0.07 0.07 0.08 0.07 0.07 0.06 0.07 0.07 0.07 0.07 0.07 0.07 0.06 0.05 0.05
0.01 0.01 0.01 0.01 0.01 0.01 0.01 0.01 0.02 0.03 0.04 0.05 0.05 0.06 0.06 0.06 0.06 0.06 0.06 0.05 0.05 0.05 0.06 0.07 0.07 0.06 0.06 0.06 0.05 0.06 0.07 0.07 0.07 0.06 0.06 0.06 0.06 0.06 0.06 0.07 0.07 0.06 0.06
0.01 0.01 0.02 0.02 0.02 0.02 0.01 0.01 0.01 0.02 0.02 0.03 0.04 0.05 0.05 0.05 0.05 0.05 0.06 0.06 0.05 0.05 0.05 0.06 0.06 0.06 0.06 0.05 0.05 0.04 0.05 0.05 0.06 0.06 0.07 0.07 0.06 0.06 0.05 0.05 0.05 0.06 0.06
0.01 0.02 0.02 0.02 0.02 0.02 0.01 0.01 0.01 0.01 0.01 0.01 0.02 0.03 0.03 0.04 0.05 0.05 0.05 0.05 0.06 0.06 0.05 0.05 0.05 0.05 0.05 0.05 0.05 0.04 0.04 0.04 0.04 0.05 0.05 0.05 0.05 0.05 0.05 0.05 0.04 0.05 0.05
0.02 0.02 0.01 0.02 0.02 0.02 0.01 0.01 0.01 0.01 0.01 0.01 0.01 0.01 0.02 0.02 0.03 0.04 0.04 0.04 0.04 0.05 0.06 0.06 0.05 0.05 0.04 0.04 0.04 0.04 0.04 0.04 0.04 0.04 0.04 0.04 0.04 0.04 0.04 0.04 0.04 0.04 0.04
0.02 0.03 0.02 0.02 0.02 0.02 0.02 0.01 0.01 0.01 0.01 0.01 0.01 0.02 0.02 0.02 0.02 0.02 0.03 0.03 0.04 0.04 0.05 0.06 0.05 0.04 0.04 0.03 0.03 0.03 0.03 0.03 0.03 0.03 0.03 0.03 0.03 0.03 0.03 0.03 0.03 0.03 0.03
0.02 0.02 0.02 0.02 0.01 0.01 0.02 0.02 0.02 0.02 0.01 0.01 0.02 0.02 0.02 0.03 0.03 0.03 0.03 0.03 0.03 0.03 0.04 0.04 0.05 0.05 0.04 0.03 0.03 0.02 0.02 0.03 0.02 0.02 0.03 0.02 0.02 0.02 0.02 0.02 0.02 0.02 0.02
0.02 0.01 0.02 0.02 0.02 0.01 0.01 0.02 0.02 0.02 0.02 0.02 0.02 0.02 0.02 0.02 0.02 0.03 0.03 0.03 0.03 0.04 0.04 0.04 0.04 0.05 0.04 0.04 0.03 0.02 0.02 0.02 0.02 0.02 0.02 0.02 0.02 0.01 0.01 0.01 0.01 0.01 0.01
0.01 0.01 0.01 0.02 0.02 0.02 0.01 0.01 0.01 0.02 0.02 0.02 0.02 0.02 0.02 0.02 0.03 0.03 0.03 0.03 0.03 0.03 0.04 0.04 0.04 0.04 0.04 0.04 0.03 0.02 0.02 0.02 0.02 0.02 0.02 0.02 0.01 0.01 0.01 0.01 0.01 0.01 0.01
0.01 0.01 0.01 0.01 0.01 0.01 0.01 0.01 0.01 0.01 0.02 0.02 0.02 0.02 0.02 0.02 0.02 0.03 0.03 0.03 0.03 0.03 0.03 0.04 0.04 0.04 0.04 0.03 0.03 0.03 0.03 0.02 0.02 0.02 0.02 0.02 0.02 0.01 0.01 0.01 0.01 0.01 0.01
0.01 0.01 0.01 0.01 0.01 0.01 0.01 0.01 0.01 0.01 0.02 0.02 0.02 0.02 0.02 0.02 0.02 0.02 0.02 0.02 0.02 0.03 0.03 0.03 0.03 0.03 0.03 0.02 0.03 0.03 0.03 0.03 0.03 0.03 0.03 0.03 0.02 0.01 0.01 0.01 0.01 0.01 0.01
0.00 0.01 0.01 0.01 0.01 0.01 0.01 0.01 0.01 0.01 0.02 0.02 0.02 0.02 0.02 0.02 0.02 0.02 0.02 0.02 0.02 0.02 0.02 0.02 0.02 0.02 0.02 0.02 0.02 0.02 0.02 0.03 0.03 0.03 0.04 0.04 0.03 0.02 0.02 0.02 0.01 0.01 0.01
MSLP
1029.25 1029.42 1029.56 1029.64 1029.66 1029.62 1029.51 1029.37 1029.21 1029.04 1028.87 1028.69 1028.50 1028.29 1028.05 1027.77 1027.46 1027.12 1026.78 1026.46 1026.17 1025.93 1025.74 1025.58 1025.45 1025.30 1025.11 1024.86 1024.52 1024.10 1023.60 1023.04 1022.44 1021.85 1021.28 1020.76 1020.30 1019.91 1019.57 1019.26 1018.97 1018.67 1018.33
1029.74 1029.86 1029.94 1029.98 1029.95 1029.87 1029.75 1029.59 1029.41 1029.23 1029.04 1028.85 1028.64 1028.40 1028.11 1027.78 1027.40 1026.99 1026.58 1026.19 1025.83 1025.53 1025.30 1025.12 1024.97 1024.84 1024.69 1024.49 1024.22 1023.87 1023.44 1022.95 1022.42 1021.87 1021.32 1020.80 1020.33 1019.90 1019.52 1019.16 1018.82 1018.48 1018.12
1030.12 1030.18 1030.21 1030.20 1030.14 1030.03 1029.88 1029.72 1029.54 1029.36 1029.17 1028.97 1028.75 1028.48 1028.16 1027.78 1027.35 1026.87 1026.39 1025.92 1025.49 1025.13 1024.83 1024.61 1024.44 1024.30 1024.16 1024.00 1023.78 1023.50 1023.15 1022.73 1022.27 1021.78 1021.28 1020.79 1020.32 1019.88 1019.46 1019.07 1018.69 1018.31 1017.92
1030.40 1030.42 1030.40 1030.34 1030.24 1030.11 1029.95 1029.78 1029.60 1029.42 1029.24 1029.04 1028.81 1028.53 1028.18 1027.76 1027.29 1026.77 1026.23 1025.70 1025.21 1024.78 1024.43 1024.15 1023.94 1023.77 1023.63 1023.48 1023.29 1023.06 1022.77 1022.43 1022.03 1021.61 1021.16 1020.71 1020.26 1019.83 1019.40 1018.99 1018.58 1018.17 1017.76
1030.60 1030.58 1030.53 1030.43 1030.30 1030.13 1029.96 1029.78 1029.60 1029.43 1029.24 1029.04 1028.80 1028.51 1028.15 1027.71 1027.21 1026.66 1026.08 1025.51 1024.98 1024.51 1024.11 1023.78 1023.53 1023.32 1023.15 1022.99 1022.81 1022.59 1022.34 1022.05 1021.72 1021.35 1020.96 1020.56 1020.15 1019.73 1019.31 1018.90 1018.47 1018.05 1017.63
1030.72 1030.68 1030.59 1030.47 1030.31 1030.13 1029.93 1029.74 1029.55 1029.37 1029.18 1028.97 1028.71 1028.41 1028.03 1027.59 1027.07 1026.51 1025.93 1025.35 1024.80 1024.30 1023.86 1023.50 1023.20 1022.95 1022.74 1022.54 1022.33 1022.12 1021.87 1021.61 1021.31 1021.00 1020.66 1020.31 1019.95 1019.56 1019.17 1018.77 1018.35 1017.93 1017.50
1030.76 1030.71 1030.61 1030.47 1030.29 1030.09 1029.88 1029.67 1029.46 1029.26 1029.04 1028.81 1028.54 1028.21 1027.82 1027.37 1026.86 1026.30 1025.73 1025.15 1024.60 1024.10 1023.65 1023.26 1022.92 1022.62 1022.35 1022.10 1021.85 1021.60 1021.35 1021.08 1020.81 1020.53 1020.24 1019.94 1019.62 1019.29 1018.94 1018.56 1018.17 1017.76 1017.34
1030.72 1030.67 1030.57 1030.42 1030.23 1030.02 1029.79 1029.56 1029.33 1029.09 1028.85 1028.58 1028.27 1027.92 1027.51 1027.05 1026.54 1025.99 1025.43 1024.88 1024.35 1023.86 1023.41 1022.99 1022.62 1022.27 1021.95 1021.63 1021.33 1021.03 1020.74 1020.46 1020.19 1019.93 1019.68 1019.42 1019.16 1018.88 1018.58 1018.25 1017.89 1017.51 1017.11
1030.62 1030.58 1030.48 1030.32 1030.13 1029.90 1029.66 1029.41 1029.15 1028.88 1028.60 1028.29 1027.94 1027.55 1027.11 1026.63 1026.12 1025.58 1025.05 1024.51 1024.01 1023.53 1023.08 1022.66 1022.26 1021.87 1021.49 1021.12 1020.75 1020.40 1020.07 1019.76 1019.48 1019.23 1019.01 1018.80 1018.59 1018.37 1018.12 1017.84 1017.52 1017.16 1016.79
1030.47 1030.43 1030.33 1030.17 1029.97 1029.74 1029.49 1029.22 1028.93 1028.63 1028.31 1027.96 1027.56 1027.13 1026.66 1026.15 1025.63 1025.10 1024.57 1024.06 1023.57 1023.11 1022.67 1022.24 1021.82 1021.40 1020.98 1020.55 1020.13 1019.73 1019.36 1019.03 1018.75 1018.51 1018.31 1018.13 1017.97 1017.79 1017.59 1017.35 1017.07 1016.75 1016.40
1030.30 1030.25 1030.14 1029.97 1029.76 1029.52 1029.26 1028.98 1028.67 1028.35 1027.99 1027.60 1027.17 1026.69 1026.18 1025.65 1025.11 1024.57 1024.04 1023.54 1023.07 1022.62 1022.19 1021.76 1021.33 1020.89 1020.43 1019.98 1019.52 1019.09 1018.69 1018.35 1018.05 1017.82 1017.64 1017.49 1017.36 1017.23 1017.06 1016.86 1016.61 1016.32 1015.99
1030.14 1030.06 1029.92 1029.73 1029.51 1029.25 1028.98 1028.69 1028.37 1028.03 1027.65 1027.23 1026.77 1026.26 1025.72 1025.16 1024.60 1024.04 1023.51 1023.02 1022.55 1022.11 1021.68 1021.26 1020.83 1020.38 1019.92 1019.45 1018.98 1018.54 1018.13 1017.78 1017.49 1017.27 1017.10 1016.97 1016.86 1016.74 1016.60 1016.42 1016.19 1015.92 1015.60
1030.01 1029.87 1029.68 1029.46 1029.20 1028.93 1028.65 1028.35 1028.03 1027.69 1027.30 1026.87 1026.38 1025.85 1025.29 1024.71 1024.13 1023.56 1023.03 1022.53 1022.06 1021.63 1021.21 1020.80 1020.38 1019.95 1019.49 1019.03 1018.57 1018.14 1017.74 1017.39 1017.11 1016.89 1016.73 1016.61 1016.51 1016.39 1016.26 1016.08 1015.86 1015.59 1015.29
1029.91 1029.69 1029.44 1029.16 1028.87 1028.58 1028.29 1027.99 1027.67 1027.32 1026.94 1026.50 1026.02 1025.48 1024.91 1024.31 1023.72 1023.15 1022.61 1022.11 1021.65 1021.22 1020.82 1020.42 1020.02 1019.61 1019.19 1018.75 1018.32 1017.91 1017.53 1017.20 1016.93 1016.72 1016.56 1016.43 1016.32 1016.20 1016.05 1015.87 1015.64 1015.37 1015.07
1029.82 1029.52 1029.19 1028.86 1028.53 1028.21 1027.90 1027.60 1027.29 1026.95 1026.58 1026.15 1025.67 1025.13 1024.56 1023.97 1023.38 1022.81 1022.27 1021.77 1021.32 1020.91 1020.52 1020.15 1019.78 1019.40 1019.00 1018.60 1018.21 1017.83 1017.48 1017.17 1016.91 1016.71 1016.54 1016.40 1016.26 1016.12 1015.96 1015.75 1015.51 1015.23 1014.93
1029.71 1029.32 1028.93 1028.54 1028.17 1027.83 1027.51 1027.21 1026.91 1026.58 1026.22 1025.80 1025.33 1024.81 1024.25 1023.67 1023.09 1022.53 1022.00 1021.52 1021.08 1020.69 1020.32 1019.97 1019.62 1019.27 1018.91 1018.55 1018.19 1017.84 1017.51 1017.23 1016.97 1016.76 1016.58 1016.42 1016.27 1016.10 1015.91 1015.68 1015.43 1015.14 1014.84
1029.54 1029.09 1028.64 1028.21 1027.82 1027.46 1027.14 1026.83 1026.53 1026.22 1025.86 1025.46 1025.01 1024.51 1023.97 1023.41 1022.85 1022.31 1021.80 1021.33 1020.91 1020.53 1020.18 1019.85 1019.52 1019.20 1018.86 1018.52 1018.18 1017.85 1017.54 1017.26 1017.01 1016.79 1016.59 1016.41 1016.23 1016.04 1015.83 1015.59 1015.32 1015.04 1014.74
1029.28 1028.79 1028.32 1027.87 1027.47 1027.11 1026.78 1026.48 1026.18 1025.87 1025.52 1025.13 1024.70 1024.21 1023.70 1023.16 1022.63 1022.12 1021.63 1021.19 1020.79 1020.43 1020.09 1019.76 1019.44 1019.12 1018.79 1018.45 1018.11 1017.78 1017.47 1017.18 1016.91 1016.68 1016.47 1016.27 1016.07 1015.87 1015.64 1015.40 1015.14 1014.86 1014.56
1028.93 1028.44 1027.96 1027.52 1027.12 1026.77 1026.45 1026.15 1025.85 1025.54 1025.20 1024.82 1024.39 1023.93 1023.44 1022.94 1022.45 1021.96 1021.51 1021.10 1020.71 1020.35 1020.01 1019.68 1019.35 1019.00 1018.65 1018.29 1017.93 1017.57 1017.23 1016.92 1016.64 1016.38 1016.15 1015.94 1015.73 1015.52 1015.30 1015.06 1014.81 1014.55 1014.27
1028.52 1028.04 1027.59 1027.17 1026.80 1026.46 1026.15 1025.85 1025.55 1025.23 1024.89 1024.52 1024.11 1023.67 1023.22 1022.75 1022.30 1021.86 1021.44 1021.04 1020.67 1020.31 1019.95 1019.60 1019.23 1018.84 1018.43 1018.02 1017.61 1017.20 1016.82 1016.47 1016.15 1015.87 1015.62 1015.40 1015.19 1014.99 1014.78 1014.56 1014.32 1014.07 1013.82
1028.07 1027.63 1027.22 1026.84 1026.49 1026.17 1025.87 1025.57 1025.27 1024.95 1024.61 1024.25 1023.86 1023.45 1023.03 1022.62 1022.20 1021.80 1021.42 1021.04 1020.67 1020.30 1019.92 1019.51 1019.08 1018.62 1018.15 1017.66 1017.17 1016.69 1016.25 1015.84 1015.48 1015.17 1014.90 1014.67 1014.47 1014.27 1014.08 1013.88 1013.67 1013.44 1013.20
1027.64 1027.25 1026.88 1026.54 1026.22 1025.91 1025.61 1025.32 1025.01 1024.70 1024.36 1024.02 1023.65 1023.28 1022.91 1022.54 1022.17 1021.81 1021.46 1021.10 1020.73 1020.33 1019.90 1019.44 1018.93 1018.38 1017.81 1017.22 1016.64 1016.08 1015.56 1015.09 1014.68 1014.33 1014.05 1013.81 1013.61 1013.42 1013.25 1013.06 1012.87 1012.65 1012.42
1027.27 1026.92 1026.59 1026.27 1025.97 1025.67 1025.38 1025.08 1024.78 1024.47 1024.15 1023.83 1023.50 1023.17 1022.85 1022.53 1022.22 1021.90 1021.57 1021.22 1020.83 1020.40 1019.92 1019.37 1018.78 1018.13 1017.45 1016.76 1016.07 1015.42 1014.82 1014.28 1013.82 1013.43 1013.12 1012.87 1012.67 1012.49 1012.33 1012.16 1011.97 1011.75 1011.51
1026.98 1026.66 1026.35 1026.05 1025.75 1025.46 1025.16 1024.87 1024.57 1024.27 1023.97 1023.68 1023.40 1023.12 1022.85 1022.59 1022.32 1022.03 1021.72 1021.37 1020.96 1020.49 1019.94 1019.32 1018.63 1017.88 1017.09 1016.29 1015.51 1014.76 1014.08 1013.48 1012.96 1012.54 1012.21 1011.94 1011.73 1011.56 1011.39 1011.22 1011.03 1010.80 1010.54
1026.76 1026.46 1026.15 1025.85 1025.56 1025.26 1024.96 1024.67 1024.38 1024.11 1023.84 1023.59 1023.35 1023.13 1022.91 1022.69 1022.46 1022.19 1021.89 1021.53 1021.08 1020.56 1019.95 1019.24 1018.46 1017.62 1016.74 1015.85 1014.98 1014.15 1013.40 1012.74 1012.18 1011.72 1011.36 1011.08 1010.86 1010.67 1010.50 1010.32 1010.11 1009.87 1009.58
1026.59 1026.28 1025.97 1025.67 1025.36 1025.07 1024.77 1024.49 1024.23 1023.98 1023.75 1023.54 1023.34 1023.16 1022.98 1022.80 1022.58 1022.33 1022.02 1021.63 1021.15 1020.57 1019.89 1019.12 1018.26 1017.34 1016.39 1015.42 1014.48 1013.60 1012.80 1012.09 1011.49 1011.01 1010.62 1010.32 1010.09 1009.89 1009.71 1009.51 1009.29 1009.03 1008.71
Thickness
5387 5390 5394 5398 5401 5404 5409 5413 5416 5420 5424 5428 5433 5438 5443 5448 5452 5456 5460 5464 5469 5473 5478 5482 5488 5492 5497 5501 5505 5508 5512 5515 5517 5517 5516 5515 5516 5517 5518 5520 5521 5523 5524
5375 5378 5382 5386 5389 5393 5397 5401 5405 5409 5413 5416 5421 5427 5431 5436 5440 5444 5448 5452 5457 5462 5467 5471 5475 5479 5484 5489 5493 5497 5500 5503 5505 5506 5504 5504 5505 5507 5508 5509 5510 5511 5512
5362 5366 5370 5374 5378 5382 5386 5390 5394 5398 5402 5405 5410 5415 5420 5424 5428 5432 5437 5441 5446 5451 5456 5460 5464 5468 5472 5477 5480 5484 5488 5491 5493 5494 5494 5494 5494 5495 5496 5497 5498 5499 5500
5350 5353 5358 5362 5366 5370 5374 5378 5382 5387 5391 5395 5399 5405 5410 5414 5418 5422 5426 5430 5435 5439 5444 5448 5452 5457 5461 5466 5469 5472 5475 5478 5481 5483 5484 5483 5484 5483 5484 5486 5486 5487 5487
5338 5342 5346 5349 5354 5358 5362 5367 5371 5375 5380 5385 5390 5395 5399 5403 5408 5412 5416 5419 5424 5428 5432 5437 5441 5445 5449 5453 5457 5461 5462 5465 5468 5471 5473 5473 5474 5473 5474 5475 5475 5475 5475
5327 5330 5334 5337 5342 5346 5351 5356 5361 5366 5370 5375 5380 5385 5390 5394 5398 5402 5405 5409 5413 5417 5422 5427 5430 5434 5437 5441 5445 5448 5450 5453 5457 5460 5463 5464 5465 5465 5465 5463 5463 5464 5464
5316 5319 5323 5326 5330 5335 5340 5345 5350 5356 5361 5366 5371 5376 5381 5385 5388 5392 5395 5399 5403 5408 5412 5416 5420 5424 5427 5430 5433 5434 5437 5440 5444 5449 5452 5454 5455 5455 5455 5453 5452 5453 5453
5306 5309 5312 5315 5320 5325 5330 5335 5340 5346 5351 5357 5362 5367 5372 5376 5378 5381 5385 5388 5393 5397 5401 5405 5410 5413 5416 5419 5421 5423 5425 5429 5432 5435 5439 5441 5441 5442 5442 5442 5441 5438 5437
5297 5300 5302 5305 5309 5314 5319 5324 5329 5335 5342 5347 5351 5357 5363 5366 5369 5371 5374 5378 5382 5386 5390 5394 5399 5402 5406 5408 5411 5413 5415 5418 5419 5422 5424 5426 5428 5429 5428 5428 5427 5427 5426
5288 5290 5293 5296 5299 5304 5309 5314 5319 5325 5331 5336 5342 5347 5352 5356 5359 5362 5365 5368 5372 5376 5380 5384 5388 5392 5395 5397 5400 5404 5406 5407 5409 5411 5412 5414 5415 5416 5416 5417 5418 5417 5415
5278 5281 5284 5287 5291 5295 5299 5304 5309 5315 5321 5327 5333 5338 5341 5345 5349 5352 5355 5359 5362 5365 5369 5373 5378 5381 5384 5388 5391 5394 5396 5397 5398 5399 5401 5402 5403 5403 5404 5404 5405 5405 5405
5269 5273 5276 5279 5282 5286 5290 5295 5300 5305 5311 5317 5322 5327 5331 5334 5338 5342 5345 5348 5352 5355 5359 5363 5368 5371 5375 5377 5380 5383 5385 5386 5387 5388 5390 5391 5391 5391 5391 5391 5391 5391 5391
5261 5264 5268 5271 5274 5278 5282 5287 5291 5296 5302 5307 5311 5316 5320 5323 5327 5331 5335 5339 5342 5345 5349 5353 5356 5361 5364 5366 5368 5371 5373 5375 5377 5378 5378 5378 5378 5378 5378 5377 5377 5377 5377
5252 5256 5260 5263 5267 5270 5273 5278 5282 5287 5292 5297 5302 5306 5310 5313 5317 5321 5325 5329 5332 5335 5339 5342 5345 5349 5351 5353 5355 5358 5360 5362 5364 5365 5365 5365 5365 5365 5365 5366 5365 5364 5364
5245 5248 5251 5255 5258 5261 5265 5268 5272 5277 5280 5286 5291 5295 5300 5304 5307 5311 5315 5319 5322 5325 5329 5332 5336 5338 5339 5340 5342 5344 5346 5347 5349 5350 5351 5351 5352 5352 5352 5352 5352 5352 5351
5237 5240 5243 5246 5249 5253 5256 5260 5263 5267 5272 5276 5280 5285 5290 5294 5298 5303 5306 5309 5312 5315 5319 5322 5324 5325 5327 5328 5330 5331 5332 5333 5334 5335 5337 5337 5338 5339 5338 5338 5338 5339 5339
5227 5230 5234 5237 5241 5244 5247 5251 5255 5259 5263 5267 5272 5275 5280 5284 5288 5293 5296 5300 5303 5306 5308 5311 5312 5312 5313 5315 5316 5317 5318 5319 5320 5321 5322 5323 5324 5324 5324 5324 5325 5325 5325
5218 5221 5224 5228 5231 5235 5238 5241 5245 5249 5254 5259 5262 5265 5269 5274 5278 5281 5285 5289 5292 5294 5296 5298 5299 5300 5301 5302 5303 5305 5306 5307 5308 5308 5309 5309 5310 5311 5311 5311 5311 5311 5312
5209 5213 5216 5219 5222 5225 5228 5231 5235 5239 5243 5247 5251 5255 5259 5263 5266 5270 5273 5276 5279 5281 5283 5285 5287 5288 5289 5290 5291 5292 5293 5294 5295 5296 5296 5296 5297 5298 5298 5298 5299 5299 5299
5201 5203 5206 5209 5213 5216 5219 5222 5225 5229 5233 5237 5240 5243 5248 5252 5256 5258 5261 5263 5265 5268 5270 5272 5274 5276 5277 5278 5279 5280 5281 5281 5282 5283 5283 5284 5285 5285 5286 5286 5286 5287 5287
5192 5194 5196 5199 5202 5205 5208 5211 5214 5218 5222 5225 5229 5232 5236 5240 5243 5245 5248 5251 5253 5255 5258 5260 5262 5264 5265 5266 5267 5268 5268 5269 5269 5270 5271 5272 5273 5273 5274 5275 5275 5275 5275
5183 5185 5187 5190 5192 5194 5197 5200 5203 5207 5211 5214 5218 5222 5225 5228 5231 5234 5236 5239 5241 5244 5246 5249 5251 5252 5253 5255 5256 5257 5258 5258 5259 5259 5260 5261 5262 5262 5263 5263 5263 5263 5263
5174 5176 5178 5181 5182 5185 5187 5190 5193 5196 5200 5204 5207 5211 5214 5217 5220 5223 5225 5228 5231 5234 5236 5238 5240 5242 5243 5244 5245 5247 5248 5249 5249 5250 5250 5251 5252 5253 5253 5253 5252 5252 5252
5167 5168 5170 5172 5173 5175 5178 5180 5183 5186 5189 5193 5197 5200 5203 5206 5208 5211 5214 5217 5221 5223 5226 5228 5230 5232 5233 5234 5236 5237 5238 5239 5240 5241 5241 5242 5243 5243 5243 5243 5243 5242 5242
5160 5160 5162 5164 5166 5167 5169 5171 5174 5177 5180 5183 5186 5189 5192 5195 5198 5201 5204 5207 5210 5213 5215 5218 5220 5222 5224 5225 5227 5229 5230 5232 5233 5234 5234 5234 5235 5234 5234 5234 5233 5232 5232
5153 5154 5155 5156 5158 5160 5161 5163 5166 5168 5170 5173 5176 5178 5181 5185 5188 5191 5194 5197 5200 5203 5206 5208 5210 5213 5215 5217 5219 5221 5223 5225 5226 5227 5227 5227 5227 5227 5226 5225 5224 5224 5223